IRIDIUM 33 DEB

基本信息
目录编号:
34648
目录名称:
IRIDIUM 33 DEB
国际标识:
1997-051JZ
轨道中心:
EARTH
物体状态:
在轨
发射日期:
1997-09-14 UTC
轨道信息
数据来源: 国际轨道数据
星历时间: 2026-09-09T02:06:12+0800
半长轴: 7219.968km
偏心率: 0.0165487
轨道倾角: 86.399°
近地点辐角: 165.345°
升交点赤经: 172.643°
平近点角: 195.262°
近地点: 722.349km
远地点: 961.313km
周期: 101.757分钟
每日圈数: 14.151415
详细信息
发射场:
TTMTR
轨道高度:
LEO
数据来源:
AOE Integration Group
参考系:
TEME
时间系统:
UTC
历元类型:
SGP4
2D轨道图
3D轨道图
轨道高度分析图
轨道倾角分析图
轨道综合分析图
查看轨道综合分析图